x

9439040 - Astoria, Or (asto3) Weather Station

2:54 - Sat 25th Feb 2017 All times are PST. -8 hours from GMT.

  • Wind
  • Sea Temp 42°f
  • Luft Temp 35°f
  • Sea Pressure 1023.9mb
  • 9439040 - Astoria, Or
  • 9439040 - Astoria, Or

More Historic Weather Station data

Upgrade to MSW Pro to gain access to the past 30 days of data for over 8000 Wavebouys and Weather Stations around the globe.

Join Pro

Comparision Forecast

View Surf forecast
   
Sa 02/25 2:54  -  1 mph 1023.9mb 42f 35f
2:48  -  2 mph 1023.9mb 42f 36f
2:42 2 3 mph 1023.9mb 42f 36f
2:36 1 2 mph 1023.9mb 42f 36f
2:30  -  2 mph 1024mb 42f 36f
2:24  -  1 mph 1023.9mb 42f 36f
2:18  -  2 mph 1023.9mb 42f 36f
2:12  -  1 mph 1023.9mb 42f 36f
2:06 1 2 mph 1023.9mb 42f 36f
2:00 2 5 mph 1023.9mb 42f 37f
1:54 1 3 mph 1024mb 42f 37f
1:48 2 3 mph 1024mb 42f 37f
1:42 1 2 mph 1024mb 42f 37f
1:36 1 2 mph 1023.9mb 42f 37f
1:30 2
mph
1023.9mb 42f 37f
1:24  -  2 mph 1023.9mb 42f 37f
1:18 1 2 mph 1023.8mb 42f 37f
1:12  -  2 mph 1023.8mb 42f 36f
1:06 1 2 mph 1023.8mb 42f 36f
1:00 2 3 mph 1023.7mb 42f 36f
12:54 2 5 mph 1023.6mb 42f 37f
12:48 2 5 mph 1023.6mb 42f 37f
12:42 1 3 mph 1023.6mb 42f 37f
12:36  -  2 mph 1023.5mb 42f 36f
12:30 1 3 mph 1023.6mb 42f 36f
12:24 1 5 mph 1023.6mb 42f 36f
12:18 2 5 mph 1023.5mb 42f 36f
12:12 1 3 mph 1023.6mb 42f 36f
12:06  -  2 mph 1023.6mb 42f 36f
12:00  -  2 mph 1023.5mb 42f 36f
Fr 02/24 11:54 2 3 mph 1023.5mb 42f 36f
11:48 2 5 mph 1023.6mb 42f 36f
11:42  -  6 mph 1023.7mb 42f 37f
11:36 3 5 mph 1023.7mb 42f 37f
11:30  -  2 mph 1023.6mb 42f 37f
11:24  -  3 mph 1023.6mb 42f 36f
11:18 5 9 mph 1023.6mb 42f 37f
11:12 5 10 mph 1023.6mb 42f 38f
11:06 5 7 mph 1023.7mb 42f 38f
11:00 2
mph
1023.7mb 42f 37f
10:54  -  3 mph 1023.7mb 42f 37f
10:48 1 2 mph 1023.7mb 42f -
10:42 3
mph
1023.7mb 42f -
10:36 1 5 mph 1023.6mb 42f -
10:30 2 5 mph 1023.5mb 42f 38f
10:24  -  3 mph 1023.6mb 42f 37f
10:18 1 6 mph 1023.6mb 42f 38f
10:12 2 3 mph 1023.6mb 42f 38f
10:06 3
mph
1023.5mb 42f 38f
10:00 1 3 mph 1023.5mb 42f 38f
9:54 2 5 mph 1023.4mb 42f 38f
9:48 3 5 mph 1023.4mb - -
9:42 3 6 mph 1023.2mb - -
9:36 2 6 mph 1023.2mb - -
9:30 3 6 mph 1023.1mb 42f 39f
9:24 3 8 mph 1023mb 42f 39f
9:18 6 8 mph 1023mb 42f 39f
9:12 6 8 mph 1022.9mb 42f 39f
9:06 5 10 mph 1022.8mb 42f 39f
9:00 3 8 mph 1022.8mb 42f 38f
8:54 7 10 mph 1022.8mb 42f 39f
8:48 7 10 mph 1022.7mb 42f 39f
8:42 7 10 mph 1022.6mb 42f 38f
8:36 6 9 mph 1022.4mb 42f 38f
8:30 6 9 mph 1022.3mb 42f 38f
8:24 6 8 mph 1022.1mb 42f 38f
8:18 6 7 mph 1021.9mb 42f 38f
8:12 5 8 mph 1021.7mb 42f 38f
8:06 6 10 mph 1021.6mb 42f 38f
8:00 5 7 mph 1021.4mb 42f 38f
7:54 2 6 mph 1021.4mb 42f 38f
7:48 3 6 mph 1021.5mb 42f 39f
7:42 6 8 mph 1021.5mb 42f 39f
7:36 6 9 mph 1021.4mb 42f 39f
7:30 7 9 mph 1021.3mb 42f 39f
7:24 5 8 mph 1021.3mb 42f 39f
7:18 6 8 mph 1021.2mb 42f 39f
7:12 5 7 mph 1021.1mb 42f 39f
7:06 3 7 mph 1021.1mb 42f 38f
7:00 6 7 mph 1021mb 42f 39f
6:54 3 7 mph 1021mb 42f 39f
6:48 3 8 mph 1021mb 42f 39f
6:42 6 7 mph 1020.9mb 42f 39f
6:36 3 7 mph 1020.9mb 42f 39f
6:30 5 7 mph 1020.9mb 42f 39f
6:24 6 10 mph 1020.8mb 42f 39f
6:18 8 15 mph 1020.9mb 42f 39f
6:12 8 11 mph 1020.9mb 42f 39f
6:06 7 11 mph 1020.9mb 42f 40f
6:00 8 10 mph 1020.9mb 42f 40f
5:54 6 10 mph 1020.9mb 42f 40f
5:48 6 10 mph 1020.9mb 42f 40f
5:42 6 9 mph 1020.8mb 42f 40f
5:36 7 10 mph 1020.7mb 42f 40f
5:30 8 11 mph 1020.7mb 42f 40f
5:24 8 11 mph 1020.7mb 42f 40f
5:18 5 10 mph 1020.7mb 42f 40f
5:12 3 9 mph 1020.7mb 42f 40f
5:06 6 8 mph 1020.6mb 42f 40f
5:00 5 9 mph 1020.5mb 42f 41f
4:54 3 6 mph 1020.5mb 42f 41f
4:48 2 5 mph 1020.4mb 42f 41f
4:42  -  3 mph 1020.4mb 42f 42f
4:36  -  2 mph 1020.4mb 42f 43f
4:30 1 5 mph 1020.4mb 42f 41f
4:24 5 6 mph 1020.4mb 42f 41f
4:18 1 6 mph 1020.4mb 42f 41f
4:12 7 9 mph 1020.3mb 42f 41f
4:06 5 7 mph 1020.3mb 42f 41f
4:00 1 3 mph 1020.3mb 42f 42f
3:54 2 3 mph 1020.3mb 42f 42f
3:48 1 5 mph 1020.2mb 42f 42f
3:42 3 6 mph 1020.2mb 42f 41f
3:36 3 5 mph 1020.2mb 42f 41f
3:30 3 5 mph 1020.2mb 42f 41f
3:24 3 6 mph 1020.2mb 42f 41f
3:18 2 6 mph 1020.2mb 42f 41f
3:12 2 6 mph 1020.2mb 42f 41f
3:06  -  5 mph 1020.2mb 42f 42f
3:00 2 7 mph 1020.2mb 42f 41f
2:54 5 7 mph 1020.2mb 42f 41f
2:48 7 10 mph 1020.2mb - 41f
2:42 8 9 mph 1020.2mb - 41f
2:36 7 11 mph 1020.2mb - 40f
2:30 6 11 mph 1020.2mb 42f 40f
2:24 7 10 mph 1020.3mb 42f 40f
2:18 6 11 mph 1020.3mb 42f 40f
2:12 8 13 mph 1020.3mb 42f 40f
2:06 8 10 mph 1020.4mb 42f 40f
2:00 6 10 mph 1020.4mb 42f 39f
1:54 6 9 mph 1020.4mb 42f 40f
1:48 5 8 mph 1020.4mb 42f 40f
1:42 6 9 mph 1020.4mb 42f 40f
1:36 6 9 mph 1020.5mb 42f 40f
1:30 6 11 mph 1020.4mb 42f 40f
1:24 7 9 mph 1020.4mb 42f 40f
1:18 8 10 mph 1020.5mb 42f 39f
1:12 5 8 mph 1020.5mb 42f 39f
1:06 7 8 mph 1020.6mb 42f 39f
1:00 7 9 mph 1020.6mb 42f 39f
12:54 6 8 mph 1020.6mb 42f 39f
12:48 5 7 mph 1020.6mb 42f 39f
12:42 6 9 mph 1020.7mb 42f 39f
12:36 6 9 mph 1020.7mb 42f 39f
12:30 5 7 mph 1020.7mb 42f 38f
12:24 7 9 mph 1020.8mb 42f 38f
12:18 6 8 mph 1020.7mb 42f 38f
12:12 3 9 mph 1020.7mb 42f 38f
12:06 5 10 mph 1020.7mb 42f 38f
12:00 6 10 mph 1020.7mb 42f 38f
11:54 7 13 mph 1020.7mb 42f 38f
11:48 6 9 mph 1020.7mb 42f 38f
11:42 8 11 mph 1020.7mb 42f 38f
11:36 8 10 mph 1020.6mb 42f 37f
11:30 6 10 mph 1020.7mb 42f 37f
11:24 3 10 mph 1020.6mb 42f 37f
11:18 9 11 mph 1020.6mb 42f 37f
11:12 8 11 mph 1020.5mb 42f 37f
11:06 8 11 mph 1020.5mb 42f 37f
11:00 8 13 mph 1020.5mb 42f 37f
10:54 2 6 mph 1020.5mb 42f 37f
10:48 3 8 mph 1020.5mb 42f 37f
10:42 5 7 mph 1020.5mb 42f 36f
10:36 3 7 mph 1020.5mb 42f 36f
10:30 2 5 mph 1020.5mb 42f 36f
10:24 5 7 mph 1020.5mb 42f 36f
10:18 5 8 mph 1020.6mb 42f 36f
10:12 3 8 mph 1020.6mb 42f 36f
10:06 5 6 mph 1020.5mb 42f 36f
10:00 5 7 mph 1020.5mb 42f 36f
9:54 2 6 mph 1020.4mb 42f 36f
9:48 2 7 mph 1020.4mb 42f 36f
9:42 5 9 mph 1020.4mb 42f 36f
9:36 6 8 mph 1020.4mb 42f 36f
9:30 5 8 mph 1020.3mb 42f 36f
9:24 5 9 mph 1020.3mb 42f 35f
9:18 5 8 mph 1020.3mb 42f 35f
9:12 5 9 mph 1020.4mb 42f 35f
9:06 3 6 mph 1020.3mb 42f 35f
9:00 6 10 mph 1020.3mb 42f 35f
8:54 6 9 mph 1020.3mb 42f 35f
8:48 5 8 mph 1020.2mb 42f 35f
8:42 2 6 mph 1020.1mb 42f 35f
8:36 5 7 mph 1020.2mb 42f 35f
8:30 7 10 mph 1020.2mb 42f 35f
8:24 3 8 mph 1020.3mb 42f 35f
8:18 3 9 mph 1020.3mb 42f 35f
8:12 7 9 mph 1020.3mb 42f 35f
8:06 3 8 mph 1020.4mb 42f 35f
8:00 5 8 mph 1020.3mb 42f 35f
7:54 2 5 mph 1020.4mb 42f 35f
7:48 3 6 mph 1020.4mb 42f 35f
7:42 3 8 mph 1020.4mb 42f 35f
7:36 3 7 mph 1020.4mb 42f 35f
7:30 7 9 mph 1020.3mb 42f 35f
7:24 3 9 mph 1020.3mb 42f 35f
7:18 3 6 mph 1020.3mb 42f 35f
7:12 3 9 mph 1020.3mb 42f 36f
7:06 7 10 mph 1020.3mb 42f 36f
7:00 3 7 mph 1020.3mb 42f 36f
6:54 3 8 mph 1020.3mb 42f 36f
6:48  -  6 mph 1020.4mb 42f 36f
6:42 3 7 mph 1020.4mb 42f 36f
6:36 3 9 mph 1020.5mb 42f 36f
6:30 6 8 mph 1020.5mb 42f 35f
6:24 2 6 mph 1020.5mb 42f 35f
6:18 2 6 mph 1020.5mb 42f 35f
6:12 2 6 mph 1020.6mb 42f 35f
6:06 1 7 mph 1020.6mb 42f 35f
6:00 3 7 mph 1020.6mb 42f 35f
5:54 2 5 mph 1020.6mb 42f 35f
5:48  -  5 mph 1020.6mb 42f 35f
5:42 1 3 mph 1020.7mb 42f 35f
5:36 2 5 mph 1020.8mb 42f 35f
5:30 2 5 mph 1020.8mb 42f 35f
5:24 2 7 mph 1020.9mb 42f 35f
5:18 3 6 mph 1020.9mb 42f 35f
5:12 3 5 mph 1021mb 42f 35f
5:06 1 6 mph 1021mb 42f 35f
5:00 5 10 mph 1021.1mb 42f 35f
4:54 8 10 mph 1021.2mb 42f 35f
4:48 8 11 mph 1021.3mb 42f 35f
4:42 3 8 mph 1021.3mb 42f 35f
4:36 5 7 mph 1021.3mb 42f 35f
4:30 3 6 mph 1021.4mb 42f 35f
4:24 3 6 mph 1021.5mb 42f 35f
4:18 5 7 mph 1021.5mb 42f 35f
4:12 3 7 mph 1021.5mb 42f 35f
4:06 5 6 mph 1021.6mb 42f 35f
4:00 5 7 mph 1021.7mb 42f 35f
3:54 2 3 mph 1021.7mb 42f 35f
3:48 3 8 mph 1021.8mb 42f 35f
3:42 6 9 mph 1021.8mb 42f 35f
3:36 1 6 mph 1021.7mb 42f 35f
3:30 5 7 mph 1021.6mb 42f 35f
3:24 3 6 mph 1021.6mb 42f 34f
3:18 3 5 mph 1021.7mb 42f 34f
3:12 2 6 mph 1021.8mb 42f 34f
3:06 3 7 mph 1021.8mb 42f 34f
3:00 5 7 mph 1021.9mb 42f 34f
2:54 6 8 mph 1022mb 42f 34f
2:48 6 7 mph 1022mb 42f 34f
2:42 7 8 mph 1022.1mb 42f 34f
2:36 7 9 mph 1022.1mb 42f 34f
2:30 6 8 mph 1022.2mb 42f 34f
2:24 6 9 mph 1022.2mb 42f 34f
2:18 7 9 mph 1022.3mb 42f 34f
2:12 7 9 mph 1022.4mb 42f 34f
2:06 5 6 mph 1022.4mb 42f 34f
2:00 2 7 mph 1022.7mb 42f 34f
1:54 7 10 mph 1023mb 42f 35f
1:48 3 5 mph 1023mb 42f 36f
1:42 2 6 mph 1022.9mb 42f 35f
1:36 6 7 mph 1022.7mb 42f 35f
1:30 5 6 mph 1022.5mb 42f 35f
1:24 6 8 mph 1022.5mb 42f 35f
1:18 7 9 mph 1022.4mb 42f 35f
1:12 5 7 mph 1022.5mb 42f 35f
1:06 5 7 mph 1022.6mb 42f 35f
1:00 5 6 mph 1022.6mb 42f 36f
12:54 6 7 mph 1022.7mb 42f 35f
12:48 5 6 mph 1022.7mb 42f 36f
12:42 2 3 mph 1022.8mb 42f 36f
12:36 1 5 mph 1022.9mb 42f 36f
12:30 2 8 mph 1023mb 42f 36f
12:24 6 8 mph 1023mb 42f 36f
12:18 5 8 mph 1022.9mb 42f 36f
12:12 7 9 mph 1022.9mb 42f 37f
12:06 6 9 mph 1022.8mb 42f 37f
12:00 5 8 mph 1022.8mb 42f 37f
Do 02/23 11:54 6 8 mph 1022.8mb 42f 36f
11:48 6 8 mph 1022.8mb 42f 37f
11:42 6 7 mph 1022.9mb 42f 37f
11:36 2 8 mph 1022.9mb 42f 37f
11:30 9 10 mph 1023mb 42f 37f
11:24 1 6 mph 1022.9mb 42f 36f
11:18 6
mph
1022.9mb 42f 36f
11:12 3 5 mph 1022.9mb 42f 38f
11:06 2
mph
1023mb 42f 38f
11:00 2 3 mph 1023.1mb 42f 38f
10:54 2 3 mph 1023.1mb 42f 38f
10:48 2
mph
1023.2mb 42f -
10:42 1 2 mph 1023.3mb 42f -
10:36 2
mph
1023.3mb 42f -
10:30  -  1 mph 1023.3mb 42f 38f
10:24 1
mph
1023.3mb 42f 37f
10:18  -  2 mph 1023.3mb 42f 38f
10:12 2
mph
1023.2mb 42f 38f
10:06 1 3 mph 1023.3mb 42f 37f
10:00 2 3 mph 1023.3mb 42f 38f
9:54  -  1 mph 1023.4mb 42f 38f
9:48 2
mph
1023.3mb 42f -
9:42 1 2 mph 1023.3mb 42f -
9:36  -  3 mph 1023.3mb 42f -
9:30 1 2 mph 1023.4mb 42f 40f
9:24 1 2 mph 1023.3mb 42f 39f
9:18  -  2 mph 1023.4mb 42f 39f
9:12 1 2 mph 1023.3mb 42f 39f
9:06  -  1 mph 1023.3mb 42f 39f
9:00 1 3 mph 1023.3mb 42f 40f
8:54 2 3 mph 1023.3mb 42f 40f
8:48 2 3 mph 1023.4mb 42f 40f
8:42 2 3 mph 1023.4mb 42f 40f
8:36 2 3 mph 1023.4mb 42f 40f
8:30 3 5 mph 1023.4mb 42f 40f
8:24 3 5 mph 1023.4mb 42f 40f
8:18 3 5 mph 1023.4mb 42f 40f
8:12 3
mph
1023.4mb 42f 40f
8:06 2 3 mph 1023.4mb 42f 40f
8:00 2 3 mph 1023.4mb 42f 40f
7:54 2 3 mph 1023.4mb 42f 40f
7:48 2 3 mph - 42f 40f
7:42 2 3 mph - 42f 40f
7:36 3
mph
- 42f 41f
7:30 3 5 mph 1023.5mb 42f 41f
7:24 3
mph
1023.5mb 42f 41f
7:18 3 5 mph 1023.5mb 42f 41f
7:12 3 5 mph 1023.5mb 42f 41f
7:06 3
mph
1023.5mb 42f 41f
7:00 2 3 mph 1023.5mb 42f 42f
6:54 2 3 mph 1023.6mb 42f 42f
6:48 3 6 mph 1023.6mb 42f 42f
6:42 5 6 mph 1023.6mb 42f 42f
6:36 2 3 mph 1023.6mb 42f 41f
6:30 3 5 mph 1023.6mb 42f 42f
6:24 3 6 mph 1023.6mb 42f 42f
6:18 3 5 mph 1023.6mb 42f 42f
6:12 3 5 mph 1023.6mb 42f 42f
6:06 5 6 mph 1023.6mb 42f 43f
6:00 5 7 mph 1023.5mb 42f 43f
5:54 6 8 mph 1023.5mb 42f 43f
5:48 6 8 mph 1023.6mb 42f 43f
5:42 6 8 mph 1023.5mb 42f 43f
5:36 5 7 mph 1023.6mb 42f 43f
5:30 5 7 mph 1023.6mb 43f 43f
5:24 5 7 mph 1023.6mb 43f 43f
5:18 6 7 mph 1023.6mb 43f 43f
5:12 6 7 mph 1023.6mb 42f 44f
5:06 6 7 mph 1023.6mb 42f 44f
5:00 6 7 mph 1023.6mb 42f 44f
4:54 3 6 mph 1023.6mb 42f 42f
4:48 6 7 mph 1023.6mb 42f 43f
4:42 6 7 mph 1023.6mb 42f 44f
4:36 3 6 mph 1023.6mb 42f 44f
4:30 3 9 mph 1023.7mb 42f 44f
4:24 8 10 mph 1023.8mb 42f 44f
4:18 9 11 mph 1023.8mb 42f 44f
4:12 8 10 mph 1023.7mb 42f 44f
4:06 8 10 mph 1023.7mb 42f 44f
4:00 8 10 mph 1023.7mb 42f 44f
3:54 7 10 mph 1023.7mb 42f 44f
3:48 9 13 mph 1023.7mb 42f 44f
3:42 9 11 mph 1023.8mb 42f 44f
3:36 9 11 mph 1023.8mb 42f 44f
3:30 7 10 mph 1023.8mb 42f 44f
3:24 9 13 mph 1023.8mb 42f 44f
3:18 7 9 mph 1023.9mb 42f 44f
3:12 7 10 mph 1023.9mb 42f 44f
3:06 8 9 mph 1024mb 42f 44f
3:00 8 9 mph 1024.1mb 42f 43f
2:54 9 10 mph 1024.1mb 42f 43f
2:48 7 10 mph 1024.1mb 42f 43f
2:42 5 6 mph 1024.2mb 42f 43f
2:36 5 7 mph 1024.2mb 42f 43f
2:30 5 6 mph 1024.2mb 42f 42f
2:24 2 7 mph 1024.2mb 42f 43f
2:18 6 9 mph 1024.3mb 42f 42f
2:12 7 9 mph 1024.3mb 42f 42f
2:06 7 10 mph 1024.2mb 42f 42f
2:00 7 8 mph 1024.2mb 42f 42f
1:54 7 8 mph 1024.3mb 42f 43f
1:48 6 8 mph 1024.4mb 42f 42f
1:42 7 9 mph 1024.5mb 42f 42f
1:36 3 6 mph 1024.5mb 42f 42f
1:30 2 3 mph 1024.5mb 42f 42f
1:24 1 3 mph 1024.6mb 42f 42f
1:18 1 2 mph 1024.6mb 42f 41f
1:12  -  2 mph 1024.6mb 42f 41f
1:06  -  2 mph 1024.6mb 42f 40f
1:00  -  1 mph 1024.7mb 42f 41f
12:54  -  1 mph 1024.8mb 42f 39f
12:48  -  1 mph 1024.8mb 42f 38f
12:42 2 3 mph 1024.9mb 42f 37f
12:36 2 3 mph 1024.9mb 42f 36f
12:30 2
mph
1024.9mb 42f 37f
12:24 2
mph
1025mb 42f 37f
12:18 2 3 mph 1025.1mb 42f 37f
12:12 1 3 mph 1025.1mb 42f 37f
12:06  -  3 mph 1025.2mb 42f 37f
12:00 3 6 mph 1025.2mb 42f 35f
11:54 5 6 mph 1025.3mb 42f 35f
11:48 5 6 mph - 42f 35f
11:42 1 5 mph - 42f 36f
11:36 2 5 mph - 42f 36f
11:30 2 3 mph 1025.5mb 42f 36f
11:24  -  2 mph 1025.4mb 42f 36f
11:18 2 3 mph 1025.5mb 42f 35f
11:12 3 5 mph 1025.5mb 42f 34f
11:06 1 5 mph 1025.5mb 42f 35f
11:00 3 6 mph 1025.5mb 42f 34f
10:54 5 6 mph 1025.5mb 42f 34f
10:48 3 7 mph 1025.6mb 42f 34f
10:42 6 7 mph 1025.6mb 42f 33f
10:36 3 5 mph 1025.6mb 42f 33f
10:30 2 5 mph 1025.6mb 42f 34f
10:24 1 2 mph 1025.6mb 42f 34f
10:18  -  3 mph 1025.6mb 42f 33f
10:12  -  3 mph 1025.6mb 42f 33f
10:06 2 3 mph 1025.6mb 42f 33f
10:00 2 5 mph 1025.5mb 42f 33f
9:54 1 5 mph 1025.5mb 42f 33f
9:48 2 3 mph 1025.4mb 42f 33f
9:42 2 5 mph 1025.4mb 42f 33f
9:36 1 3 mph 1025.3mb 42f 33f
9:30 2 5 mph 1025.3mb 42f 33f
9:24 3 7 mph 1025.3mb 42f 33f
9:18 5 6 mph 1025.3mb 42f 32f
9:12 5 6 mph 1025.3mb 42f 32f
9:06  -  2 mph 1025.2mb 42f 33f
8:54 2 6 mph 1025.2mb 42f 33f
8:48 5 6 mph 1025.1mb 42f 32f
8:42 5 7 mph 1025.1mb 42f 33f
8:36 5 7 mph 1025.1mb 42f 33f
8:24 3 6 mph 1025.1mb 42f 33f
8:18 5 6 mph 1025mb 42f 32f
8:12 3 6 mph 1025mb 42f 33f
8:06 2 6 mph 1025mb 42f 32f
7:54 2 5 mph 1025mb 42f 33f
7:48 3 5 mph 1024.9mb 42f 32f
7:42 5 7 mph 1024.8mb 42f 32f
7:36 2 5 mph 1024.7mb 42f 33f
7:24 3 6 mph 1024.6mb 42f 33f
7:18  -  5 mph 1024.5mb 42f 33f
7:12 2 6 mph 1024.5mb 42f 33f
7:06 3 6 mph 1024.4mb 42f 33f
7:00 5 7 mph 1024.4mb 42f 33f
6:54 2 5 mph 1024.4mb 42f 33f
6:48 6 7 mph 1024.4mb 42f 33f
6:42 5 6 mph 1024.3mb 42f 33f
6:36 1 5 mph 1024.3mb 42f 33f
6:30 3 7 mph 1024.4mb 42f 33f
6:24 6 7 mph 1024.4mb 42f 33f
6:18 3 6 mph 1024.4mb 42f 33f
6:12 7 9 mph 1024.1mb 42f 33f
6:06 6 8 mph 1024.1mb 42f 33f
6:00 5 7 mph 1024.2mb 42f 33f
5:54 5 6 mph 1024.2mb 42f 33f
5:48 3 6 mph 1024.2mb 42f 33f
5:42 2 5 mph 1024.3mb 42f 33f
5:36 3 6 mph 1024.3mb 42f 33f
5:30 5 7 mph 1024.3mb 42f 33f
5:24 5 9 mph 1024.2mb 42f 33f
5:18 7 9 mph 1024.2mb 42f 33f
5:12 7 8 mph 1024.1mb 42f 33f
5:06 6 9 mph 1024.1mb 42f 33f
5:00 8 9 mph 1024.1mb 42f 33f
4:54 6 9 mph 1024.1mb 42f 33f
4:48 2 5 mph 1024.2mb 42f 33f
4:42 3 6 mph 1024.1mb 42f 33f
4:36 3 7 mph 1024.1mb 42f 33f
4:30 7 9 mph 1024.2mb 42f 33f
4:24 6 8 mph 1024.2mb 42f 33f
4:18 6 7 mph 1024.2mb 42f 33f
4:12  -  5 mph 1024.1mb 42f 33f
4:06 5 6 mph 1024mb 42f 33f
4:00 2 5 mph 1024mb 42f 34f
3:54 2 3 mph 1024mb 42f 34f
3:48 1 3 mph 1024mb 42f 34f
3:42 2 3 mph 1024mb 42f 34f
3:36 1 5 mph 1024mb 42f 34f
3:30 3 5 mph 1023.9mb 42f 34f
3:24 2 5 mph 1023.9mb 42f 34f
3:18  -  2 mph 1023.8mb 42f 34f
3:12 2 3 mph 1023.9mb 42f 34f
3:06 3 5 mph 1023.9mb 42f 34f
3:00  -  1 mph 1023.8mb 42f 35f
2:54 2 3 mph 1023.8mb 42f 35f
2:48 2 5 mph 1023.7mb 42f 34f
2:42 2 3 mph 1023.8mb 42f 34f
2:36 1 2 mph 1023.8mb 42f 35f
2:30  -  1 mph 1023.8mb 42f 35f
2:24  -  2 mph 1023.8mb 42f 35f
2:18  -  2 mph 1023.9mb 42f 35f
2:12 1 2 mph 1023.9mb 42f 35f
2:06  -  1 mph 1023.9mb 42f 35f
2:00 1 2 mph 1023.8mb 42f 35f
1:54  -  2 mph 1023.8mb 42f 35f
1:48 1 2 mph 1023.8mb 42f 35f
12:54 5 7 mph 1024mb 42f 35f
12:48 5 6 mph 1024mb 42f 35f
Mi 02/22 11:54 3 5 mph 1024mb 42f 37f
11:48 2 3 mph 1024mb 42f 37f
10:54  -  1 mph 1023.9mb 42f 36f
10:48 1 2 mph 1023.9mb 42f 36f
9:54 2 3 mph 1023.6mb 42f 37f
9:48 3 5 mph 1023.6mb 42f 37f
8:54 1 2 mph 1023.3mb 42f 38f
8:48 1 2 mph 1023.3mb 42f 38f
7:54 1
mph
1023mb 42f 38f
7:48  -  1 mph 1023mb 42f 38f
6:54 1 2 mph 1023.1mb 42f 39f
6:48 2 3 mph 1023.1mb 42f 39f
5:54 6 7 mph 1022.9mb 43f 41f
5:48 5 7 mph 1022.9mb 43f 41f
4:54 10 13 mph 1022.8mb 42f 41f
4:48 5 8 mph 1022.7mb 42f 42f
3:54 7 9 mph 1022.7mb 42f 41f
3:48 8 9 mph 1022.7mb 42f 41f
2:54 3
mph
1022.8mb 42f 41f
2:48 3 5 mph 1022.8mb 42f 42f
1:54 6 8 mph 1022.8mb 42f 42f
1:48 3 6 mph 1022.8mb 42f 42f
12:54 6 7 mph 1023mb 42f 41f
12:48 5 6 mph 1023.1mb 42f 41f
11:54 5 6 mph 1023.3mb 42f 40f
11:48 3 5 mph 1023.4mb 42f 40f
10:54 1 2 mph 1023.5mb 42f 38f
9:54 5 6 mph 1023.5mb 42f 37f
9:48 3 8 mph 1023.5mb 42f 37f
8:54 7 8 mph 1023.2mb 42f 36f
8:48 6 7 mph 1023.2mb 42f 36f
7:54 5 6 mph 1023.4mb 42f 36f
7:48 2 6 mph 1023.4mb 42f 36f
6:54 1 3 mph 1022.9mb 42f 36f
6:48 2 6 mph 1022.9mb 42f 36f
5:54  -  2 mph 1022.9mb 41f 36f
5:48 2 3 mph 1023mb 41f 37f
4:54 2
mph
1022.9mb 41f 37f
4:48  -  3 mph 1023mb 41f 37f
2:54 2 6 mph 1022.6mb 42f 39f
2:48 3 6 mph 1022.5mb 42f 38f
2:42 5 6 mph 1022.5mb 42f 38f
2:36 3 6 mph 1022.6mb 42f 38f
2:30 3 5 mph 1022.6mb 42f 38f
2:24  -  6 mph 1022.6mb 42f 38f
2:18 5
mph
1022.6mb 42f 38f
2:12 6 9 mph 1022.7mb 42f 39f
2:06 1 3 mph 1022.7mb 42f 39f
2:00 2 3 mph 1022.6mb 42f 38f
1:54 2 5 mph 1022.6mb 42f 39f
1:48 5 6 mph 1022.6mb 42f 39f
1:42 1 2 mph 1022.6mb 42f 39f
1:36 3 6 mph 1022.6mb 42f 40f
1:30 3 6 mph 1022.6mb 42f 40f
1:24 2 3 mph 1022.6mb 42f 40f
1:18 2 5 mph 1022.7mb 42f 39f
1:12 5 6 mph 1022.7mb 42f 40f
1:06 6
mph
1022.7mb 42f 39f
1:00 3 5 mph 1022.7mb 42f 39f
12:54 1 5 mph 1022.7mb 42f 39f
12:48 3
mph
1022.6mb 42f 39f
12:42 2 5 mph 1022.6mb 42f 39f
12:36 5 6 mph 1022.7mb 42f 39f
12:30 5
mph
1022.6mb 42f 39f
12:24 3 5 mph 1022.6mb 42f 39f
12:18  -  3 mph 1022.6mb 42f 40f
12:12 3 5 mph 1022.7mb 42f 40f
12:06  -  2 mph 1022.7mb 42f 40f
12:00 2 6 mph 1022.7mb 42f 40f
Di 02/21 11:54 5 6 mph 1022.7mb 42f 40f
11:48  -  1 mph 1022.6mb 42f 39f
11:42 1
mph
1022.6mb 42f 39f
11:36  -  1 mph 1022.6mb 42f 40f
11:30 1
mph
1022.5mb 42f 40f
11:24  -  1 mph 1022.5mb 42f 40f
11:18 1 2 mph 1022.4mb 42f 40f
11:12 2
mph
1022.4mb 42f 40f
11:06 1 2 mph 1022.4mb 42f 40f
11:00 1 2 mph 1022.4mb 42f 40f
10:54 1
mph
1022.4mb 42f 40f
10:48 1 2 mph 1022.4mb - -
10:42 1
mph
1022.4mb - -
10:36  -  1 mph 1022.4mb - -
10:30 2 5 mph 1022.4mb 42f 41f
10:24  -  1 mph 1022.3mb 42f 40f
10:18  -  1 mph 1022.2mb 42f 40f
10:12  -  1 mph 1022.2mb 42f 41f
10:06  -  2 mph 1022.2mb 42f 41f
10:00 1 2 mph 1022.1mb 42f 41f
9:54 3 6 mph 1022.1mb 42f 41f
9:48 1 2 mph 1022mb 42f 42f
9:42  -  2 mph 1021.9mb 42f 42f
9:36  -  2 mph 1021.9mb 42f 42f
9:30 1
mph
1021.8mb 42f 42f
9:24  -  2 mph 1021.8mb 42f 42f
9:18 1 2 mph 1021.7mb 43f 42f
9:12 2 6 mph 1021.6mb 43f 42f
9:06 2 3 mph 1021.6mb 43f 42f
9:00 3 6 mph 1021.5mb 43f 42f
8:54 6
mph
1021.4mb 43f 43f
8:48 3 5 mph 1021.4mb 43f 43f
8:42 3 6 mph 1021.3mb 43f 43f
8:36 5 6 mph 1021.2mb 43f 43f
8:30 3 5 mph 1021.2mb 43f 43f
8:24 2 3 mph 1021.1mb 43f 42f
8:18  -  2 mph 1021.1mb 43f 42f
8:12  -  2 mph 1021mb 43f 42f
8:06  -  2 mph 1021mb 43f 42f
8:00 2
mph
1021mb 43f 42f
7:54  -  2 mph 1021mb 43f 42f
7:48 1 2 mph 1021mb 43f 42f
7:42 1 2 mph 1020.9mb 43f 42f
7:36  -  2 mph 1020.9mb 43f 43f
7:30  -  2 mph 1020.8mb 43f 43f
7:24 1 3 mph 1020.8mb 43f 43f
7:18 3 5 mph 1020.8mb 43f 43f
7:12 3 5 mph 1020.7mb 43f 43f
7:06 5 6 mph 1020.7mb 43f 43f
7:00 6 11 mph 1020.7mb 43f 42f
6:54 9 14 mph 1020.7mb 43f 43f
6:48 13 17 mph 1020.7mb 43f 43f
6:42 15 20 mph 1020.6mb 43f 44f
6:36 8 10 mph 1020.5mb 43f 44f
6:30 5 6 mph 1020.2mb 43f 44f
6:24 5 7 mph 1020.1mb 43f 44f
6:18 6 7 mph 1020mb 43f 44f
6:12 3 5 mph 1020mb 43f 44f
6:06 3 5 mph 1019.9mb 43f 44f
6:00 3 5 mph 1019.8mb 43f 44f
5:54 3 6 mph 1019.8mb 43f 44f
5:48 2 7 mph 1019.7mb 43f 44f
5:42 5 6 mph 1019.8mb 43f 44f
5:36 5 6 mph 1019.6mb 43f 45f
5:30 3 7 mph 1019.5mb 43f 45f
5:24 5 9 mph 1019.5mb 43f 45f
5:18 7 9 mph 1019.4mb 43f 46f
5:12 6 10 mph 1019.2mb 43f 46f
5:06 8 10 mph 1019.1mb 43f 45f
5:00 7 11 mph 1019.1mb 43f 46f
4:54 8 11 mph 1019mb 43f 45f
4:48 7 9 mph 1018.9mb 43f 44f
4:42 7 10 mph 1018.9mb 43f 45f
4:36 9 10 mph 1018.8mb 43f 45f
4:30 8 9 mph 1018.8mb 43f 45f
4:24 7 10 mph 1018.7mb 43f 46f
4:18 9 11 mph 1018.6mb 43f 45f
4:12 5 7 mph 1018.4mb 43f 45f
4:06 3 6 mph 1018.3mb 43f 45f
4:00 5 6 mph 1018.2mb 43f 45f
3:54 2 3 mph 1018.1mb 43f 45f
3:48 5 9 mph 1018.1mb 43f 46f
3:42 8 10 mph 1018.1mb 43f 46f
3:36 8 11 mph 1017.9mb 43f 46f
3:30 8 9 mph 1017.9mb 43f 46f
3:24 6 9 mph 1017.8mb 43f 46f
3:18 11 15 mph 1017.7mb 43f 47f
3:12 11 14 mph 1017.6mb 43f 47f
3:06 9 11 mph 1017.6mb 42f 47f
3:00 8 10 mph 1017.5mb 42f 46f
2:54 6 13 mph 1017.4mb 42f 46f
2:48 9 13 mph 1017.2mb 42f 46f
2:42 11 14 mph 1017.1mb 42f 47f
2:36 13 17 mph 1017.1mb 42f 46f
2:30 10 15 mph 1017.1mb 42f 47f
2:24 10 17 mph 1017mb 42f 47f
2:18 13 16 mph 1016.9mb 42f 46f
2:12 13 17 mph 1016.8mb 42f 47f
2:06 13 17 mph 1016.6mb 42f 47f
2:00 9 14 mph 1016.5mb 42f 47f
1:54 7 11 mph 1016.4mb 42f 47f
1:48 9 13 mph 1016.3mb 42f 47f
1:42 10 13 mph 1016.3mb 42f 46f
1:36 9 15 mph 1016.2mb 42f 47f
1:30 9 14 mph 1016.1mb 42f 47f
1:24 10 16 mph 1016mb 42f 47f
1:18 13 17 mph 1015.9mb 42f 47f
1:12 8 14 mph 1015.8mb 42f 46f
1:06 10 14 mph 1015.7mb 42f 47f
1:00 11 14 mph 1015.6mb 42f 47f
12:54 10 14 mph 1015.5mb 42f 47f
12:48 10 16 mph 1015.5mb 42f 47f
12:42 11 15 mph 1015.5mb 42f 47f
12:36 8 11 mph 1015.4mb 42f 46f
12:30 7 10 mph 1015.4mb 42f 46f
12:24 9 14 mph 1015.3mb 42f 46f
12:18 9 14 mph 1015.2mb 42f 47f
12:12 8 10 mph 1015.1mb 42f 47f
12:06 8 13 mph 1015.1mb 42f 47f
12:00 9 14 mph 1015mb 42f 46f
11:54 9 14 mph 1015mb 42f 47f
11:48 9 11 mph 1015mb 42f 46f
11:42 10 13 mph 1014.9mb 42f 47f
11:36 7 10 mph 1014.8mb 42f 46f